Location: Eitze
(52.9840°N, 9.6894°E)
Time: 00:43:35
(UTC+00:00)

Cosmos 1766 Rocket - Pass Details

Date: 19 May 2025
Orbit: 598 x 627 km, 82.5° (Epoch: 15 June)

Event Time Altitude Azimuth Distance (km) Brightness Sun altitude
Rises 21:53:02 0° 346° (NNW) 2,911 8.9 -14.8°
Reaches altitude 10° 21:55:18 10° 343° (NNW) 1,996 7.6 -14.9°
Maximum altitude 21:59:39 61° 264° (W) 702 3.8 -15.1°
Enters shadow 22:02:14 23° 190° (S) 1,314 4.7 -15.2°
